Regional Weather Roundup
Issued by NWS Burlington, VT

Home | Current Version | Previous Version | Text Only | Print | Product List | Glossary On
Versions: 1 2 3 4 5 6 7 8 9 10 11 12 13 14 15 16 17 18 19 20 21 22 23 24 25 26 27 28 29 30 31 32 33 34 35 36 37 38 39 40 41 42 43 44 45 46 47 48 49 50
135
ASUS41 KBTV 111610
RWRBTV
VERMONT REGIONAL WEATHER ROUNDUP
NATIONAL WEATHER SERVICE BURLINGTON VT
1100 AM EST THU FEB 11 2016

NOTE: "FAIR" INDICATES FEW OR NO CLOUDS BELOW 12,000 FEET WITH NO
SIGNIFICANT WEATHER AND/OR OBSTRUCTIONS TO VISIBILITY.

* THESE REPORTS ARE NOT UNDER NWS QUALITY CONTROL AND/OR DO NOT
  REPORT WEATHER SUCH AS PRECIPITATION AND FOG.

VTZ001>019-111700-
_____VERMONT_____


CITY           SKY/WX    TMP DP  RH WIND       PRES   REMARKS
BURLINGTON     FAIR      18   7  62 N12       29.75R WCI   5
MONTPELIER     CLOUDY    17   7  64 NW9       29.69R WCI   6
MORRISVILLE    CLOUDY    17   7  64 N12       29.71R WCI   4
ST. JOHNSBURY*   N/A     20   6  55 MISG      29.67R
LYNDONVILLE*   PTSUNNY   17   6  64 SW9       29.66R WCI   5
RUTLAND*       CLOUDY    18   3  53 SW5       29.71S WCI  11
SPRINGFIELD    CLOUDY    21   4  47 NW14G21   29.71S WCI   8
HIGHGATE*      PTSUNNY   12   2  64 NW7       29.79R WCI   1
NEWPORT*       CLOUDY    13   5  70 NW7       29.69R WCI   3
BENNINGTON     CLOUDY    18   2  49 W14G24    29.75R WCI   4

_____LAKE CHAMPLAIN_____


CITY           SKY/WX    TMP DP  RH WIND       PRES   REMARKS

$$

NYZ007-026>031-035-052-083-111700-
_____NORTHERN NEW YORK_____


CITY           SKY/WX    TMP DP  RH WIND       PRES   REMARKS
PLATTSBURGH    PTSUNNY   17   2  51 NW13G23   29.78R WCI   4
SARANAC LAKE   CLOUDY     8   0  69 SW9G20    29.65S WCI  -5
MASSENA        FLURRIES   4  -6  63 W15       29.90R WCI -14
OGDENSBURG*    PTSUNNY    9  -4  56 NW10      29.90R WCI  -6
WATERTOWN      CLOUDY     5  -4  66 NW9       29.94R WCI  -9
ALBANY         CLOUDY    22   5  48 W18G25    29.83R WCI   7
GLENS FALLS    PTSUNNY   20  -1  40 W10       29.78R WCI   9

$$
NHZ002-005-011-111700-
_____NEW HAMPSHIRE_____


CITY           SKY/WX    TMP DP  RH WIND       PRES   REMARKS
LEBANON        CLOUDY    23   2  40 NW8       29.68S WCI  14
MT WASHINGTON  SNOWSHWR  -2  -2 100 W22         N/A  VSB 1/16WCI -26
PLYMOUTH       CLOUDY    24   8  50 W12G17    29.67R WCI  13
WHITEFIELD     CLOUDY    20   7  57 W12G20    29.63R WCI   8

$$

_____REGIONAL QUEBEC LOCATIONS_____


CITY           SKY/WX    TMP DP  RH WIND       PRES   REMARKS
MONTREAL       FLURRIES   7   0  72 W16       29.81R WCI -11
QUEBEC CITY    FLURRIES  14   5  67 SW17      29.66R WCI  -3
SHERBROOKE     LGT SNOW  14   9  79 SW12G18   29.65R WCI   0

_____REGIONAL ONTARIO LOCATIONS_____


CITY           SKY/WX    TMP DP  RH WIND       PRES   REMARKS
OTTAWA         MOSUNNY    0  -9  65 W18       29.90R WCI -22

______KEY______
VSB  - VISIBILITY IN MILES
WCI  - WIND CHILL INDEX
HX   - HEAT INDEX
$$
NNNN




USA.gov is the U.S. government's official web portal to all federal, state and local government web resources and services.